Location: Clarion
(42.7316°N, 93.7330°W)
Time: 09:09:19
(UTC+00:00)

CRYOSAT 2 - Pass Details

Date: 22 April 2026
Orbit: 718 x 721 km, 92.0° (Epoch: 17 May)

Event Time Altitude Azimuth Distance (km) Brightness Sun altitude
Exits shadow 09:34:30 12° 172° (S) 2,070 6.4 -18.3°
Maximum altitude 09:39:03 87° 84° (E) 728 4.3 -17.7°
Drops below altitude 10° 09:43:58 10° 356° (N) 2,217 7.3 -17.0°
Sets 09:46:15 0° 356° (N) 3,141 8.1 -16.6°
